PBO Station Position Time Series. Reference Frame : NAM14
Format Version,1.1.0
4-character ID,RCA2
Station name,RCA2_SCGN_CS2000
Begin Date, 2000-09-28
End Date, 2019-10-07
Release Date, 2019-10-08
Reference position, 34.4999813212 North Latitude, -119.7199974595 East Longitude, 1179.20999 meters elevation,
Date, North (mm), East (mm), Vertical (mm), North Std. Deviation (mm), East Std. Deviation (mm),              Vertical Std. Deviation (mm), Quality,
2000-09-28,0.00, 0.00, 0.00, 2.12, 1.90, 8.43, repro,
2000-09-29,-0.73, 0.19, -5.41, 2.22, 1.87, 8.69, repro,
2000-09-30,-0.12, 0.40, 0.92, 2.09, 1.82, 8.03, repro,
2000-10-01,-0.87, -1.60, -2.08, 2.09, 1.79, 8.10, repro,
2000-10-02,-1.10, -0.16, -2.09, 2.13, 1.87, 8.26, repro,
2000-10-03,-1.32, -0.04, -6.30, 2.11, 1.85, 8.34, repro,
2000-10-04,-0.18, 0.08, 1.25, 2.08, 1.80, 8.23, repro,
2000-10-05,0.10, -1.81, -1.73, 2.12, 1.92, 8.32, repro,
2000-10-06,-0.98, -0.80, -7.96, 2.05, 1.75, 7.95, repro,
2000-10-07,-0.89, -0.64, -9.14, 2.03, 1.74, 7.88, repro,
2000-10-10,2.95, -0.98, 14.18, 3.59, 3.05, 14.34, repro,
2000-10-11,-0.21, 0.17, -15.22, 2.12, 1.79, 8.30, repro,
2000-10-12,-0.86, -0.23, -14.97, 2.09, 1.82, 8.11, repro,
2000-10-13,-0.83, -0.60, -7.31, 2.09, 1.87, 8.22, repro,
2000-10-14,-0.48, -0.16, -1.84, 2.19, 1.88, 8.72, repro,
2000-10-15,-1.23, -1.37, -1.63, 2.25, 1.91, 9.03, repro,
2000-10-16,0.50, -0.51, -2.49, 2.09, 1.81, 8.22, repro,
2000-10-17,0.44, -0.66, -2.55, 2.22, 1.90, 8.69, repro,
2000-10-18,0.54, -0.26, -10.62, 2.11, 1.85, 8.28, repro,
2000-10-19,0.60, 0.48, 0.78, 2.30, 1.98, 9.54, repro,
2000-10-20,0.91, -1.50, -5.94, 2.41, 2.03, 9.66, repro,
2000-10-21,-0.89, -1.93, -5.98, 2.27, 1.97, 9.01, repro,
2000-10-22,-0.04, -0.79, -2.83, 2.39, 2.02, 9.54, repro,
2000-10-23,-1.18, 1.18, -12.06, 6.14, 5.02, 22.78, repro,
2000-10-24,-0.15, -2.69, -15.13, 4.31, 3.32, 16.00, repro,
2000-10-25,-0.71, -1.06, 0.18, 2.11, 1.81, 8.39, repro,
2000-10-26,-0.02, -1.40, -0.83, 2.18, 1.88, 8.47, repro,
2000-10-27,1.47, -1.16, -9.16, 2.19, 1.95, 8.64, repro,
2000-10-28,1.09, -1.77, -3.72, 2.25, 1.92, 8.87, repro,
2000-10-29,0.55, -1.18, -15.06, 2.08, 1.79, 8.14, repro,
2000-10-30,-1.34, -0.24, -9.24, 2.16, 1.89, 8.48, repro,
2000-10-31,0.85, -2.45, -2.14, 2.18, 1.88, 8.56, repro,
2000-11-01,0.16, -0.86, -1.39, 2.13, 1.87, 8.55, repro,
2000-11-02,-1.93, -1.97, -3.58, 2.13, 1.94, 8.54, repro,
2000-11-03,1.35, 0.70, -12.08, 2.28, 2.00, 8.92, repro,
2000-11-04,0.53, -0.29, 1.20, 2.11, 1.83, 8.36, repro,
2000-11-05,-1.09, -0.95, -3.47, 2.25, 1.98, 8.90, repro,
2000-11-06,-0.22, -0.19, -15.03, 2.18, 1.91, 8.67, repro,
2000-11-07,0.19, -1.54, -3.93, 2.28, 1.97, 9.12, repro,
2000-11-08,0.66, -0.01, -3.03, 2.10, 1.82, 8.19, repro,
2000-11-09,0.15, 0.26, -4.12, 2.36, 2.09, 9.29, repro,
2000-11-10,-0.55, -0.56, -3.03, 2.37, 1.95, 9.55, repro,
2000-11-11,-1.84, -0.23, -8.32, 2.18, 1.87, 8.81, repro,
2000-11-12,1.21, -0.56, 0.94, 2.04, 1.78, 8.08, repro,
2000-11-13,0.53, -0.14, -6.56, 2.13, 1.89, 8.32, repro,
2000-11-14,-1.06, -0.18, -5.23, 2.20, 1.99, 8.52, repro,
2000-11-15,-0.56, -0.96, -3.05, 2.25, 1.94, 8.78, repro,
2000-11-16,-1.36, 0.32, -1.48, 2.22, 1.92, 8.69, repro,
2000-11-17,-0.89, 0.12, -4.08, 2.09, 1.86, 8.30, repro,
2000-11-18,0.47, -0.21, -4.92, 2.13, 1.88, 8.35, repro,
2000-11-19,-0.06, 0.12, -2.65, 2.25, 1.99, 8.90, repro,
2000-11-20,-0.62, 0.34, -3.46, 2.34, 1.98, 9.09, repro,
2000-11-21,-0.53, -0.18, -5.60, 2.21, 1.94, 8.77, repro,
2000-11-22,0.96, -0.19, -12.13, 2.13, 1.89, 8.36, repro,
2000-11-23,-0.26, -0.67, -9.58, 2.13, 1.85, 8.42, repro,
2000-11-24,0.26, -0.43, -5.75, 2.12, 1.87, 8.44, repro,
2000-11-25,-0.09, -0.07, -5.85, 2.17, 1.94, 8.69, repro,
2000-11-26,-0.04, -0.28, -1.47, 2.24, 2.02, 9.14, repro,
2000-11-27,0.46, -0.25, -3.56, 2.35, 1.98, 9.21, repro,
2000-11-28,-0.43, -0.02, -5.76, 2.25, 2.02, 9.16, repro,
2000-11-29,-0.89, -0.37, -8.50, 2.25, 2.04, 9.03, repro,
2000-11-30,-1.90, -0.33, -9.44, 2.23, 1.99, 9.02, repro,
2000-12-01,-0.38, -0.10, -4.45, 2.45, 2.01, 9.92, repro,
2000-12-02,0.46, -0.58, -5.51, 2.37, 2.13, 9.63, repro,
2000-12-03,1.39, 1.04, -11.43, 2.51, 2.11, 10.01, repro,
2000-12-04,-1.13, -1.07, -9.10, 2.64, 2.42, 11.05, repro,
2000-12-05,-0.57, 0.06, -15.00, 2.24, 1.89, 8.97, repro,
2000-12-06,-0.08, 1.40, -10.36, 2.37, 1.96, 9.31, repro,
2000-12-07,-1.31, -0.22, -8.06, 2.25, 2.00, 9.05, repro,
2000-12-08,-1.03, -0.13, -8.78, 2.40, 2.15, 9.53, repro,
2000-12-09,-1.72, 0.09, -13.33, 2.31, 2.09, 9.21, repro,
2000-12-10,-1.13, -0.10, -15.17, 2.37, 2.11, 9.35, repro,
2000-12-11,-1.24, -1.15, -6.04, 2.09, 1.84, 8.56, repro,
2000-12-12,-1.42, -1.18, -5.85, 2.12, 1.86, 8.53, repro,
2000-12-13,-0.28, -0.59, -8.38, 2.12, 1.75, 8.26, repro,
2000-12-14,-1.01, -0.65, -16.13, 2.03, 1.78, 8.16, repro,
2000-12-15,-1.61, 0.88, -16.92, 2.02, 1.78, 8.12, repro,
2000-12-16,-0.89, -1.19, -16.68, 2.03, 1.78, 8.12, repro,
2000-12-17,0.94, -0.70, -3.17, 2.15, 1.84, 8.55, repro,
2000-12-18,0.23, -1.44, -10.02, 2.16, 1.90, 8.91, repro,
2000-12-19,-0.58, -0.73, -8.39, 2.25, 1.93, 9.19, repro,
2000-12-20,-0.54, -0.98, -13.71, 2.03, 1.78, 8.16, repro,
2000-12-21,-0.96, -0.98, -11.48, 2.14, 1.87, 8.63, repro,
2000-12-22,-1.07, -1.37, -13.30, 2.07, 1.76, 8.12, repro,
2000-12-23,-0.96, -1.30, -13.37, 2.06, 1.82, 8.36, repro,
2000-12-24,-0.48, -0.46, -13.52, 2.02, 1.73, 7.91, repro,
2000-12-25,-2.21, -0.87, -14.98, 2.01, 1.73, 7.91, repro,
2000-12-26,-1.18, -0.16, -14.42, 2.05, 1.79, 8.18, repro,
2000-12-27,-0.35, -0.99, -17.35, 2.12, 1.80, 8.50, repro,
2000-12-28,-0.29, -0.87, -11.48, 2.11, 1.80, 8.33, repro,
2000-12-29,-0.41, -1.11, -7.39, 2.04, 1.77, 8.18, repro,
2000-12-30,-0.92, -0.94, -9.25, 2.11, 1.84, 8.53, repro,
2000-12-31,-1.95, -1.35, -13.03, 2.36, 1.99, 9.32, repro,
2001-01-01,-0.89, -0.26, -10.05, 2.16, 1.88, 8.74, repro,
2001-01-02,0.03, -1.05, -13.16, 2.21, 1.87, 9.08, repro,
2001-01-03,-0.72, -0.88, -11.78, 2.10, 1.86, 8.47, repro,
2001-01-04,-0.22, -1.71, -12.62, 2.11, 1.82, 8.38, repro,
2001-01-05,-0.61, -0.69, -2.53, 2.13, 1.86, 8.44, repro,
2001-01-06,-0.87, -0.86, -8.49, 2.18, 1.92, 8.82, repro,
2001-01-07,-1.53, -1.25, -5.39, 2.03, 1.74, 8.09, repro,
2001-01-08,-1.60, -2.01, -7.83, 2.10, 1.84, 8.58, repro,
2001-01-09,-2.36, -1.76, -1.32, 2.06, 1.75, 8.18, repro,
2001-01-10,-2.11, 0.48, -10.85, 2.05, 1.77, 8.07, repro,
2001-01-11,-1.99, 0.10, -14.16, 2.04, 1.79, 8.34, repro,
2001-01-12,1.78, 1.05, -12.20, 2.07, 1.76, 8.24, repro,
2001-01-13,0.18, -1.54, -8.45, 2.09, 1.77, 8.27, repro,
2001-01-14,-0.72, -0.62, -16.97, 2.34, 1.93, 9.13, repro,
2001-01-15,-2.26, -1.29, -11.99, 2.38, 2.02, 9.43, repro,
2001-01-16,-0.76, -2.39, -18.42, 2.29, 1.97, 9.11, repro,
2001-01-17,-0.17, -0.63, -15.55, 2.10, 1.77, 8.32, repro,
2001-01-18,0.58, -1.54, -11.77, 2.16, 1.93, 8.71, repro,
2001-01-19,0.09, -1.12, -10.10, 2.14, 1.83, 8.52, repro,
2001-01-20,-0.62, -1.07, -13.37, 2.03, 1.78, 8.24, repro,
2001-01-21,-0.80, -0.11, -17.41, 2.15, 1.83, 8.67, repro,
2001-01-22,-1.08, -1.03, -12.81, 2.03, 1.79, 8.27, repro,
2001-01-23,-0.21, -0.50, -20.35, 2.20, 1.90, 8.83, repro,
2001-01-24,1.78, -0.62, -10.36, 2.26, 1.90, 9.06, repro,
2001-01-25,-2.76, -0.94, -26.14, 2.21, 1.89, 9.05, repro,
2001-01-26,-4.54, -3.24, -22.66, 2.38, 1.98, 9.53, repro,
2001-01-27,-2.73, -1.60, -10.02, 2.21, 1.92, 9.02, repro,
2001-01-28,0.11, -0.82, -14.24, 2.18, 1.92, 8.78, repro,
2001-01-29,-0.27, -0.85, -13.97, 2.04, 1.74, 7.96, repro,
2001-01-30,-0.47, -0.27, -17.22, 2.07, 1.81, 8.25, repro,
2001-01-31,-0.30, -0.77, -18.54, 2.08, 1.85, 8.38, repro,
2001-02-01,0.34, -1.05, -19.70, 2.04, 1.75, 8.03, repro,
2001-02-02,0.57, -0.31, -19.63, 2.07, 1.75, 8.09, repro,
2001-02-03,0.97, -0.04, -12.02, 2.04, 1.75, 8.00, repro,
2001-02-04,-0.11, -0.94, -13.12, 2.09, 1.80, 8.23, repro,
2001-02-05,-0.66, -0.48, -15.79, 2.14, 1.86, 8.28, repro,
2001-02-06,-1.14, -0.80, -18.44, 2.07, 1.76, 8.08, repro,
2001-02-07,-1.49, -1.98, -19.10, 2.07, 1.75, 8.10, repro,
2001-02-08,-1.25, -1.33, -13.41, 2.10, 1.85, 8.16, repro,
2001-02-09,-0.06, -0.74, -18.22, 2.07, 1.79, 8.11, repro,
2001-02-10,0.65, 0.01, -19.22, 2.04, 1.74, 7.98, repro,
2001-02-11,1.58, 0.67, -18.36, 2.09, 1.84, 8.11, repro,
2001-02-12,-0.19, -1.04, -17.42, 2.15, 1.84, 8.35, repro,
2001-02-13,-0.35, -2.11, -18.24, 2.05, 1.75, 8.03, repro,
2001-02-14,-0.34, -0.55, -15.28, 2.08, 1.83, 8.11, repro,
2001-02-15,1.11, -1.07, -17.09, 2.05, 1.77, 8.08, repro,
2001-02-16,0.71, -1.27, -20.91, 2.09, 1.74, 7.99, repro,
2001-02-17,-0.84, -0.22, -17.89, 2.14, 1.83, 8.36, repro,
2001-02-18,0.81, -0.70, -18.03, 2.09, 1.80, 8.13, repro,
2001-02-19,2.68, 1.02, -19.28, 2.18, 1.79, 8.36, repro,
2001-02-20,0.06, -0.25, -17.71, 2.23, 1.90, 8.71, repro,
2001-02-21,-1.15, -1.51, -22.70, 2.14, 1.84, 8.25, repro,
2001-02-22,0.37, -0.94, -21.77, 2.03, 1.77, 8.07, repro,
2001-02-23,-2.61, -1.02, -10.17, 2.09, 1.83, 8.09, repro,
2001-02-24,-0.36, 1.47, -15.11, 2.27, 2.01, 8.73, repro,
2001-02-25,1.66, -0.66, -22.72, 2.13, 1.87, 8.31, repro,
2001-02-26,-0.22, -1.11, -19.45, 2.24, 2.08, 8.69, repro,
2001-02-27,0.49, -0.79, -27.55, 2.08, 1.81, 8.34, repro,
2001-02-28,-1.10, -1.05, -14.27, 2.28, 1.97, 9.01, repro,
2001-03-01,1.94, -0.37, -3.38, 2.47, 2.16, 9.66, repro,
2001-03-02,1.47, -0.61, -15.63, 2.56, 2.27, 10.09, repro,
2001-03-03,1.98, -2.13, -18.34, 2.17, 1.90, 8.47, repro,
2001-03-04,-0.19, 0.31, -16.08, 2.10, 1.77, 8.19, repro,
2001-03-05,2.20, 1.30, -17.81, 2.16, 1.86, 8.24, repro,
2001-03-06,2.07, 1.70, -24.40, 2.04, 1.79, 8.04, repro,
2001-03-07,-0.43, -1.23, -22.05, 2.05, 1.76, 8.05, repro,
2001-03-08,1.17, 0.09, -10.30, 2.16, 1.90, 8.38, repro,
2001-03-09,0.14, -0.38, -26.86, 2.15, 1.84, 8.45, repro,
2001-03-10,-0.83, -1.22, -21.03, 2.20, 1.87, 8.35, repro,
2001-03-11,-0.22, -1.22, -13.77, 2.32, 2.04, 8.98, repro,
2001-03-12,1.03, -0.32, -11.32, 2.24, 1.97, 8.68, repro,
2001-03-13,1.55, -0.97, -17.11, 2.32, 2.15, 9.12, repro,
2001-03-14,-0.36, -0.18, -15.05, 2.05, 1.81, 8.03, repro,
2001-03-15,0.31, 0.40, -11.71, 2.04, 1.81, 8.11, repro,
2001-03-16,-1.61, 0.74, -12.06, 2.05, 1.82, 8.02, repro,
2001-03-17,3.60, -1.22, -19.10, 2.06, 1.80, 7.89, repro,
2001-03-18,-0.07, -0.54, -27.43, 2.04, 1.75, 7.90, repro,
2001-03-19,0.61, -0.72, -21.58, 2.03, 1.74, 7.81, repro,
2001-03-20,1.16, -0.51, -17.59, 2.02, 1.74, 7.84, repro,
2001-03-21,-0.22, -0.98, -18.54, 2.03, 1.74, 7.85, repro,
2001-03-22,0.86, -0.61, -14.78, 2.03, 1.74, 7.85, repro,
2001-03-23,0.34, -0.73, -11.24, 2.04, 1.75, 7.93, repro,
2001-03-24,1.04, -0.29, -18.62, 2.05, 1.75, 7.91, repro,
2001-03-25,-1.15, -0.90, -21.41, 2.03, 1.74, 7.87, repro,
2001-03-26,0.09, -1.57, -13.50, 2.09, 1.78, 8.06, repro,
2001-03-27,2.08, -0.93, -16.39, 2.13, 1.78, 8.20, repro,
2001-03-28,2.28, 0.45, -11.38, 2.15, 1.79, 8.24, repro,
2001-03-29,0.47, 0.82, -15.14, 2.03, 1.74, 7.87, repro,
2001-03-30,0.37, -0.11, -19.20, 2.03, 1.74, 7.83, repro,
2001-03-31,1.34, -0.13, -16.59, 2.08, 1.75, 8.04, repro,
2001-04-01,1.50, -1.05, -10.21, 2.02, 1.74, 7.80, repro,
2001-04-02,1.58, -0.45, -7.14, 2.03, 1.75, 7.85, repro,
2001-04-03,1.93, -1.53, -16.20, 2.08, 1.80, 7.91, repro,
2001-04-04,1.56, -0.71, -10.54, 2.06, 1.79, 8.00, repro,
2001-04-05,2.05, -0.33, -16.00, 2.05, 1.78, 7.86, repro,
2001-04-06,0.70, -1.38, -15.46, 2.15, 1.89, 8.30, repro,
2001-04-07,2.92, 0.23, -13.26, 2.05, 1.79, 7.95, repro,
2001-04-08,1.97, -0.54, -12.94, 2.07, 1.81, 8.08, repro,
2001-04-09,1.98, -0.85, -17.57, 2.04, 1.79, 7.89, repro,
2001-04-10,-0.44, -0.34, -15.70, 2.07, 1.81, 8.06, repro,
2001-04-11,0.28, -0.07, -18.41, 2.11, 1.81, 8.20, repro,
2001-04-12,-0.30, -1.06, -19.95, 2.08, 1.78, 8.03, repro,
2001-04-13,1.90, -1.02, -15.07, 2.06, 1.82, 8.15, repro,
2001-04-14,2.13, -0.89, -20.68, 2.07, 1.87, 8.06, repro,
2001-04-15,1.73, -0.41, -13.76, 2.08, 1.87, 8.06, repro,
2001-04-16,1.11, -1.96, -10.66, 2.14, 1.94, 8.28, repro,
2001-04-17,2.52, -0.29, -13.14, 2.18, 1.90, 8.44, repro,
2001-04-18,1.47, -1.47, -12.35, 2.18, 1.82, 8.45, repro,
2001-04-19,1.71, -1.33, -8.45, 2.07, 1.80, 8.01, repro,
2001-04-20,1.49, 0.13, -10.49, 2.01, 1.73, 7.83, repro,
2001-04-21,-1.12, -0.27, -4.45, 2.03, 1.75, 7.87, repro,
2001-04-22,1.00, 1.17, -15.46, 2.12, 1.81, 8.12, repro,
2001-04-23,1.57, 1.15, -12.12, 2.07, 1.78, 8.09, repro,
2001-04-24,3.32, -0.85, -8.88, 2.36, 1.92, 8.91, repro,
2001-04-25,3.45, 0.22, 3.64, 2.18, 1.86, 8.40, repro,
2001-04-26,2.39, 0.33, -8.93, 2.04, 1.77, 7.96, repro,
2001-04-27,1.94, 1.35, -3.19, 2.01, 1.75, 7.87, repro,
2001-04-28,1.44, -0.28, -1.94, 2.04, 1.76, 7.89, repro,
2001-04-29,2.54, -1.46, 2.16, 2.01, 1.74, 7.82, repro,
2001-04-30,2.95, -0.49, -8.04, 2.06, 1.84, 8.02, repro,
2001-05-01,0.83, -1.16, -7.73, 2.04, 1.81, 7.83, repro,
2001-05-02,2.09, -1.77, -6.56, 1.99, 1.68, 7.70, repro,
2001-05-03,1.91, -0.22, -7.58, 2.00, 1.69, 7.71, repro,
2001-05-04,1.96, 0.46, -5.81, 2.01, 1.73, 7.74, repro,
2001-05-05,2.93, -0.37, -13.54, 1.98, 1.69, 7.62, repro,
2001-05-06,1.40, 0.04, -7.72, 2.06, 1.73, 7.87, repro,
2001-05-07,1.88, 0.22, -4.35, 2.04, 1.77, 7.99, repro,
2001-05-08,2.00, 0.05, -6.97, 2.03, 1.76, 7.89, repro,
2001-05-09,1.88, 0.11, -3.33, 2.00, 1.71, 7.79, repro,
2001-05-10,-0.54, -1.66, -5.21, 1.98, 1.70, 7.70, repro,
2001-05-11,0.46, -0.13, -8.09, 2.01, 1.71, 7.77, repro,
2001-05-12,0.93, 0.95, -8.69, 2.00, 1.76, 7.87, repro,
2001-05-13,1.87, -0.41, -13.39, 2.04, 1.79, 7.97, repro,
2001-05-14,1.12, 0.20, -6.41, 2.01, 1.75, 7.89, repro,
2001-05-15,1.62, 0.77, -4.39, 2.01, 1.72, 7.79, repro,
2001-05-16,1.70, -0.17, -4.45, 2.01, 1.76, 7.82, repro,
2001-05-17,1.44, -1.12, -6.61, 2.04, 1.84, 7.99, repro,
2001-05-18,0.96, -1.05, -5.47, 2.00, 1.73, 7.84, repro,
2001-05-19,0.87, -0.97, -8.57, 1.98, 1.72, 7.80, repro,
2001-05-20,1.30, -1.28, -4.60, 1.98, 1.68, 7.63, repro,
2001-05-21,-0.04, -0.58, -3.82, 1.99, 1.70, 7.71, repro,
2001-05-22,0.30, -1.57, -1.91, 1.99, 1.76, 7.82, repro,
2001-05-23,0.51, -2.13, 2.37, 2.02, 1.77, 7.81, repro,
2001-05-24,0.85, -0.97, -2.09, 1.96, 1.68, 7.59, repro,
2001-05-25,1.24, -1.75, -0.71, 1.98, 1.69, 7.66, repro,
2001-05-26,0.79, -1.27, -1.98, 2.02, 1.70, 7.77, repro,
2001-05-27,0.75, -1.02, -2.18, 2.03, 1.71, 7.86, repro,
2001-05-28,0.60, -0.43, -2.61, 2.00, 1.74, 7.67, repro,
2001-05-29,0.48, -1.45, -6.67, 2.03, 1.72, 7.93, repro,
2001-05-30,1.89, -1.55, 0.09, 2.05, 1.72, 7.96, repro,
2001-05-31,1.77, -0.50, 0.41, 1.99, 1.71, 7.76, repro,
2001-06-01,2.11, -1.31, 3.47, 2.05, 1.73, 7.98, repro,
2001-06-02,1.18, -1.72, 3.76, 2.01, 1.75, 7.80, repro,
2001-06-03,0.91, -0.58, 5.26, 1.98, 1.72, 7.75, repro,
2001-06-04,0.96, -0.74, 3.01, 2.04, 1.79, 8.06, repro,
2001-06-05,-1.39, -1.35, 6.68, 1.99, 1.70, 7.68, repro,
2001-06-06,-0.79, -1.18, -4.83, 2.05, 1.72, 7.97, repro,
2001-06-07,0.22, -2.16, -3.29, 2.03, 1.82, 7.95, repro,
2001-06-08,1.06, -0.66, 1.47, 2.03, 1.73, 7.92, repro,
2001-06-09,-1.25, -1.71, -2.78, 2.03, 1.73, 7.91, repro,
2001-06-10,1.38, -0.35, -9.32, 2.03, 1.71, 7.86, repro,
2001-06-11,0.41, -1.03, -0.96, 2.03, 1.72, 7.87, repro,
2001-06-12,0.92, 0.87, 3.01, 2.07, 1.75, 8.06, repro,
2001-06-13,1.13, 0.56, 5.81, 2.02, 1.73, 7.81, repro,
2001-06-14,0.62, -0.73, -0.19, 2.02, 1.72, 7.88, repro,
2001-06-15,0.74, -0.62, -2.73, 2.05, 1.75, 7.96, repro,
2001-06-16,1.44, -0.34, -4.12, 2.05, 1.76, 8.09, repro,
2001-06-17,0.94, -1.29, -8.14, 2.03, 1.73, 7.84, repro,
2001-06-18,1.15, -0.68, -0.52, 2.02, 1.70, 7.79, repro,
2001-06-19,0.47, -1.85, -6.28, 2.04, 1.76, 7.79, repro,
2001-06-20,0.63, -0.25, -5.78, 2.09, 1.77, 8.05, repro,
2001-06-21,2.28, -0.27, -1.40, 2.08, 1.77, 8.02, repro,
2001-06-22,1.40, -0.15, -0.97, 1.98, 1.70, 7.62, repro,
2001-06-23,0.13, -1.52, -8.34, 2.09, 1.82, 8.14, repro,
2001-06-24,1.13, -1.57, 6.08, 2.02, 1.76, 7.76, repro,
2001-06-25,-0.40, -1.24, -5.97, 1.97, 1.69, 7.60, repro,
2001-06-26,-0.76, -0.51, -1.83, 2.06, 1.82, 8.06, repro,
2001-06-27,0.48, -0.70, -6.63, 2.01, 1.75, 7.73, repro,
2001-06-28,0.01, -0.62, -1.82, 1.98, 1.71, 7.59, repro,
2001-06-29,-0.05, -0.73, -2.81, 2.00, 1.73, 7.76, repro,
2001-06-30,0.04, -0.87, -3.45, 1.97, 1.69, 7.55, repro,
2001-07-01,1.00, -1.87, -4.03, 1.97, 1.69, 7.53, repro,
2001-07-02,-0.02, -1.32, -8.95, 1.97, 1.71, 7.60, repro,
2001-07-03,1.13, -1.82, -3.63, 1.98, 1.74, 7.69, repro,
2001-07-04,0.23, -1.37, -17.64, 1.96, 1.69, 7.56, repro,
2001-07-05,0.06, -1.07, -5.00, 1.99, 1.70, 7.59, repro,
2001-07-06,0.82, -1.91, -4.86, 1.98, 1.70, 7.60, repro,
2001-07-07,-0.32, -1.01, -13.02, 1.98, 1.74, 7.64, repro,
2001-07-08,0.96, -1.49, -10.05, 2.01, 1.74, 7.74, repro,
2001-07-09,1.74, -0.88, -16.72, 1.99, 1.74, 7.69, repro,
2001-07-10,-0.21, -1.11, -12.90, 2.12, 1.82, 8.13, repro,
2001-07-11,-1.29, -2.50, -9.32, 2.01, 1.76, 7.76, repro,
2001-07-12,0.97, -1.31, -7.32, 2.03, 1.74, 7.76, repro,
2001-07-13,0.15, -1.23, -8.02, 2.05, 1.75, 7.90, repro,
2001-07-14,0.01, -2.20, -3.13, 2.00, 1.74, 7.68, repro,
2001-07-15,-0.55, -1.76, -4.19, 1.96, 1.68, 7.52, repro,
2001-07-16,0.09, -0.87, -8.68, 2.00, 1.75, 7.69, repro,
2001-07-17,-0.12, -2.29, -1.55, 1.96, 1.69, 7.52, repro,
2001-07-18,-0.03, -2.90, -5.86, 1.99, 1.74, 7.66, repro,
2001-07-19,-0.19, -2.17, -12.37, 1.95, 1.69, 7.49, repro,
2001-07-20,-0.84, -2.46, -6.94, 2.06, 1.76, 7.92, repro,
2001-07-21,0.31, -1.42, -6.90, 1.95, 1.70, 7.56, repro,
2001-07-22,0.52, -1.84, -11.20, 2.02, 1.73, 7.68, repro,
2001-07-23,0.30, -0.50, -6.99, 2.00, 1.75, 7.70, repro,
2001-07-24,1.77, -1.56, -2.41, 2.01, 1.73, 7.67, repro,
2001-07-25,0.43, -1.01, -4.77, 1.99, 1.71, 7.63, repro,
2001-07-26,0.03, -1.29, -10.22, 2.06, 1.77, 7.97, repro,
2001-07-27,-0.31, -1.00, -6.76, 2.07, 1.84, 7.94, repro,
2001-07-28,1.19, -1.35, -6.33, 2.12, 1.84, 8.02, repro,
2001-07-29,-0.36, -1.30, -11.42, 2.03, 1.81, 7.82, repro,
2001-07-30,0.31, -1.23, -8.77, 2.19, 1.87, 8.31, repro,
2001-07-31,-0.57, -0.97, -4.89, 2.05, 1.83, 7.98, repro,
2001-08-01,-0.14, -1.06, -7.91, 2.04, 1.76, 7.78, repro,
2001-08-02,0.62, -1.82, -9.94, 2.02, 1.74, 7.71, repro,
2001-08-03,-0.12, -0.72, -8.51, 2.09, 1.78, 7.91, repro,
2001-08-04,2.44, -0.45, 1.74, 2.11, 1.85, 8.06, repro,
2001-08-05,1.83, -2.00, -3.55, 2.12, 1.83, 8.00, repro,
2001-08-06,1.17, -1.53, -9.51, 2.12, 1.85, 8.06, repro,
2001-08-07,0.26, -0.57, -8.74, 2.23, 1.97, 8.62, repro,
2001-08-08,1.52, -1.87, -10.66, 2.11, 1.87, 8.02, repro,
2001-08-09,1.59, -2.99, -6.32, 2.17, 1.88, 8.22, repro,
2001-08-10,1.67, -0.98, -11.02, 2.23, 1.97, 8.46, repro,
2001-08-11,0.25, -1.53, -7.74, 2.12, 1.77, 7.99, repro,
2001-08-12,0.33, -0.85, -10.49, 2.04, 1.71, 7.78, repro,
2001-08-13,0.65, -3.24, -6.24, 2.08, 1.75, 7.89, repro,
2001-08-14,0.70, -0.62, -3.43, 2.07, 1.78, 7.72, repro,
2001-08-15,-1.46, -0.35, -9.13, 2.14, 1.83, 7.96, repro,
2001-08-16,0.06, -1.54, -10.43, 2.13, 1.79, 8.02, repro,
2001-08-17,1.17, -1.46, -11.99, 2.22, 1.88, 8.22, repro,
2001-08-18,1.55, -0.93, -6.33, 2.25, 1.92, 8.31, repro,
2001-08-19,0.45, -0.44, -6.22, 2.13, 1.80, 7.96, repro,
2001-08-20,1.91, -0.78, -4.24, 2.29, 1.87, 8.24, repro,
2001-08-21,0.50, -0.61, -8.95, 2.28, 1.91, 8.38, repro,
2001-08-22,-0.76, -0.35, -11.13, 2.13, 1.81, 7.97, repro,
2001-08-23,1.00, -1.21, -6.86, 2.11, 1.76, 7.91, repro,
2001-08-24,0.45, -1.69, -4.66, 2.16, 1.81, 7.99, repro,
2001-08-25,0.17, -0.36, -1.46, 2.10, 1.76, 7.94, repro,
2001-08-26,1.23, -1.13, -14.14, 2.32, 1.96, 8.69, repro,
2001-08-27,1.27, -1.33, -9.24, 2.22, 1.80, 8.39, repro,
2001-08-28,1.27, -1.92, -0.07, 2.45, 2.06, 9.16, repro,
2001-08-29,0.87, -0.19, -2.94, 2.24, 1.89, 8.32, repro,
2001-08-30,0.02, -1.17, -8.36, 2.37, 1.91, 8.62, repro,
2001-08-31,0.91, -0.86, 1.87, 2.40, 1.98, 8.72, repro,
2001-09-01,-0.01, -0.61, -0.49, 2.08, 1.78, 7.99, repro,
2001-09-02,1.23, -1.86, -5.63, 2.14, 1.85, 8.03, repro,
2001-09-03,1.31, -1.17, -5.05, 2.15, 1.80, 8.13, repro,
2001-09-04,0.99, -1.43, -5.08, 2.19, 1.87, 8.34, repro,
2001-09-05,0.90, -0.75, -0.25, 2.32, 2.05, 8.82, repro,
2001-09-06,-0.14, -1.84, -4.62, 2.24, 1.83, 8.34, repro,
2001-09-07,0.76, -0.62, -9.86, 2.03, 1.72, 7.78, repro,
2001-09-08,0.54, -0.48, -6.77, 1.99, 1.72, 7.61, repro,
2001-09-09,0.20, 0.01, -3.90, 2.07, 1.81, 7.89, repro,
2001-09-10,-0.42, -0.56, -9.13, 1.98, 1.67, 7.60, repro,
2001-09-11,0.44, -1.17, -8.28, 2.07, 1.81, 7.88, repro,
2001-09-12,-0.76, -0.39, -0.35, 2.18, 1.89, 8.37, repro,
2001-09-13,-0.29, -1.30, -2.62, 2.04, 1.74, 7.82, repro,
2001-09-14,1.11, -1.28, -9.16, 2.00, 1.72, 7.62, repro,
2001-09-15,0.61, -0.67, 0.34, 2.01, 1.72, 7.71, repro,
2001-09-16,-0.03, -1.42, 0.86, 2.02, 1.71, 7.67, repro,
2001-09-17,0.81, -0.77, -1.73, 2.00, 1.71, 7.65, repro,
2001-09-18,-0.13, -0.79, -5.22, 1.99, 1.70, 7.58, repro,
2001-09-19,-0.30, -0.14, -0.77, 2.00, 1.71, 7.64, repro,
2001-09-20,0.26, -1.03, 1.15, 2.10, 1.81, 8.06, repro,
2001-09-21,0.70, -1.00, -3.04, 2.02, 1.76, 7.80, repro,
2001-09-22,0.86, -0.66, -0.11, 2.06, 1.73, 7.95, repro,
2001-09-23,0.69, -1.31, -9.90, 2.00, 1.72, 7.66, repro,
2001-09-24,-0.18, -0.97, -0.24, 2.00, 1.68, 7.69, repro,
2001-09-25,2.12, -0.82, -0.25, 2.04, 1.74, 7.80, repro,
2001-09-26,-0.17, 0.02, -0.78, 2.00, 1.72, 7.77, repro,
2001-09-27,-0.50, -0.82, 3.56, 2.04, 1.76, 7.81, repro,
2001-09-28,0.10, -1.29, -3.37, 2.00, 1.72, 7.75, repro,
2001-09-29,-0.34, -1.43, -4.14, 2.05, 1.78, 7.81, repro,
2001-09-30,0.43, -1.91, -4.46, 2.01, 1.74, 7.76, repro,
2001-10-01,-0.16, -1.14, -4.04, 2.02, 1.73, 7.73, repro,
2001-10-02,0.62, -1.30, 4.58, 2.00, 1.70, 7.70, repro,
2001-10-03,-0.09, -1.06, -1.48, 2.15, 1.79, 8.22, repro,
2001-10-04,0.21, -1.15, -4.11, 2.25, 1.78, 8.50, repro,
2001-10-05,-1.06, -1.89, 0.59, 2.16, 1.70, 8.12, repro,
2001-10-06,-16.84, -3.13, 54.20, 17.64, 12.42, 75.17, repro,
2001-10-07,0.21, -0.17, -1.56, 2.17, 1.80, 8.24, repro,
2001-10-08,0.19, -0.63, -5.49, 2.10, 1.75, 8.15, repro,
2001-10-09,1.28, -1.14, -9.08, 5.14, 3.94, 19.07, repro,
2001-10-10,-0.29, 0.15, -11.39, 2.19, 1.80, 8.47, repro,
2001-10-11,0.09, -0.53, -3.67, 2.12, 1.77, 8.18, repro,
2001-10-13,-0.86, -0.39, 3.10, 2.08, 1.77, 7.89, repro,
2001-10-14,-0.36, -0.29, -1.81, 2.13, 1.82, 8.09, repro,
2001-10-15,-0.40, -1.08, -1.51, 2.15, 1.80, 8.14, repro,
2001-10-16,0.46, -0.70, -8.83, 2.20, 1.82, 8.33, repro,
2001-10-17,-0.74, 0.27, -4.05, 2.36, 1.95, 8.77, repro,
2001-10-18,-0.02, -1.38, 1.28, 2.25, 1.84, 8.61, repro,
2001-10-19,-0.30, -1.14, -6.07, 2.55, 2.19, 9.91, repro,
2001-10-20,-0.21, -1.32, -1.76, 2.19, 1.80, 8.27, repro,
2001-10-21,0.24, -1.38, -2.10, 2.30, 1.86, 8.61, repro,
2001-10-22,-0.66, -0.19, 1.52, 2.17, 1.94, 8.43, repro,
2001-10-23,-2.29, -0.59, 3.49, 2.21, 1.82, 8.40, repro,
2001-10-24,-1.02, -1.10, 0.16, 2.34, 1.91, 8.74, repro,
2001-10-25,-0.70, -0.10, -7.91, 2.53, 2.11, 9.21, repro,
2001-10-26,-0.18, -0.82, -7.73, 2.34, 1.93, 8.90, repro,
2001-10-27,0.44, -0.70, -4.86, 2.19, 1.80, 8.43, repro,
2001-10-28,-1.48, -0.75, -1.99, 2.44, 2.17, 9.66, repro,
2001-10-29,-1.06, -0.57, -0.65, 2.18, 1.83, 8.35, repro,
2001-10-30,-1.59, -0.44, -6.64, 2.11, 1.81, 8.07, repro,
2001-10-31,-1.17, 0.68, -2.10, 2.13, 1.79, 8.13, repro,
2001-11-01,-0.19, -0.13, 3.28, 2.22, 1.95, 8.70, repro,
2001-11-02,-0.10, -1.01, 1.03, 2.11, 1.85, 8.16, repro,
2001-11-03,0.53, 0.09, -5.12, 2.25, 1.93, 8.56, repro,
2001-11-04,-1.68, 0.04, -8.72, 2.23, 1.89, 8.48, repro,
2001-11-05,-0.81, 0.87, -0.62, 2.48, 2.15, 9.51, repro,
2001-11-06,-1.11, -0.67, -7.05, 2.28, 1.93, 8.72, repro,
2001-11-07,-1.75, -0.46, -5.40, 2.19, 1.85, 8.34, repro,
2001-11-08,-0.66, -0.16, -7.78, 2.21, 1.85, 8.61, repro,
2001-11-09,-0.44, -0.92, -9.83, 2.45, 2.17, 10.05, repro,
2001-11-10,0.34, -0.16, -8.71, 2.60, 2.19, 10.06, repro,
2001-11-11,-0.59, 0.59, -4.58, 2.18, 1.83, 8.41, repro,
2001-11-12,0.06, 0.12, -3.74, 2.13, 1.79, 8.09, repro,
2001-11-13,-1.29, 0.41, 3.53, 2.29, 1.89, 8.80, repro,
2001-11-14,1.14, -1.34, 0.76, 2.14, 1.73, 8.16, repro,
2001-11-15,1.48, -0.75, -6.66, 2.16, 1.87, 8.47, repro,
2001-11-16,-1.47, 0.33, -2.02, 2.15, 1.87, 8.32, repro,
2001-11-17,-0.26, -1.08, -5.89, 2.07, 1.76, 8.02, repro,
2001-11-18,-0.07, 0.34, -12.38, 2.09, 1.88, 8.29, repro,
2001-11-19,-1.91, -0.38, -9.49, 2.16, 1.88, 8.57, repro,